Regional Weather Roundup
Issued by NWS

Home | Current Version | Previous Version | Text Only | Print | Product List | Glossary On
Versions: 1 2 3 4 5 6 7 8 9 10 11 12 13 14 15 16 17 18 19 20 21 22 23 24 25 26 27 28 29 30 31 32 33 34 35 36 37 38 39 40 41 42 43 44 45 46 47 48 49 50
000
ASCA44 KEWX 202020
RWRMX

LATIN AMERICA AND CARIBBEAN REGIONAL WEATHER ROUNDUP
NATIONAL WEATHER SERVICE AUSTIN/SAN ANTONIO TX
200 PM CST SAT JAN 20 2018

NOTE: "FAIR" INDICATED FEW OR NO CLOUDS BELOW 12,000 FEET WITH NO
SIGNIFICANT WEATHER AND/OR OBSTRUCTIONS TO VISIBILITY.

BAJA CALIFORNIA

CITY           SKY/WX    TMP DP  RH WIND       PRES   REMARKS
LORETO         MOSUNNY   75  52  43 NE7       29.93F
LA PAZ         PTSUNNY   75  55  50 S6        29.99
MEXICALI       MOSUNNY   64  25  22 W18       29.98
S.J. DEL CABO  CLOUDY    79  48  34 CALM      29.98F
TIJUANA        PTSUNNY   55  43  62 W14       30.08F

NORTHWESTERN MEXICO

CITY           SKY/WX    TMP DP  RH WIND       PRES   REMARKS
CULIACAN       CLOUDY    79  54  41 S9        29.97
DURANGO        MOSUNNY   70   7   8 S12       30.14
GUAYMAS        MOSUNNY   68  61  77 S12       29.93F
HERMOSILLO     PTSUNNY   75  48  38 SW12      29.97
CD. JUAREZ     MOSUNNY   66  23  19 SW8       29.96
LOS MOCHIS     PTSUNNY   77  50  38 SW16        N/A
OBREGON        MOSUNNY   79  37  22 S8        29.94

NORTHEASTERN MEXICO

CITY           SKY/WX    TMP DP  RH WIND       PRES   REMARKS
CHIHUAHUA      SUNNY     73  27  17 SW13      29.99
MATAMOROS      MOSUNNY   75  63  64 S16       30.00
MONCLOVA       SUNNY     77  37  24 CALM      29.96F FOG
NUEVO LAREDO   MOSUNNY   57  54  88 CALM      29.99
PIEDRAS NEGRAS MOSUNNY   52  48  87 SE6       30.02F
REYNOSA        MOSUNNY   75  59  57 S9G21     29.97
SALTILLO       SUNNY     73  50  43 SW12      30.13F
TORREON        MOSUNNY   75  32  20 E3        30.02F
CD. VICTORIA   SUNNY     77  52  41 MISG      29.96

WESTERN MEXICO

CITY           SKY/WX    TMP DP  RH WIND       PRES   REMARKS
AGUASCALIENTES PTSUNNY   70  25  18 SW16      30.22
COLIMA         MOSUNNY   84  52  32 CALM      30.00F
DEL BAJIO      PTSUNNY   70  32  24 W10       30.26F
GUADALAJARA    PTSUNNY   75  34  22 S5        30.15
MANZANILLO     PTSUNNY   86  75  70 SW12      29.89F HX  95
MAZATLAN       PTSUNNY   79  57  47 NW5       29.96F
P. VALLARTA    MOSUNNY   75  61  60 SW9       29.93F
URUAPAN        CLOUDY    72  48  43 SE12      30.15
ZACATECAS      MOSUNNY   68  25  19 SW23      30.21F

CENTRAL MEXICO

CITY           SKY/WX    TMP DP  RH WIND       PRES   REMARKS
CUERNAVACA     PTSUNNY   81  41  24 SE6       30.09F
MEXICO CITY    MOSUNNY   68  28  22 E8        30.26F
MORELIA        SUNNY     72  32  23 S3        30.19
POZA RICA      CLOUDY    77  63  61 SE7       30.05F
PUEBLA         MOSUNNY   68  34  28 SW9       30.26F
QUERETARO      MOSUNNY   70  27  19 NW18      30.24F
S. LUIS POTOSI PTSUNNY   72  18  13 W14       30.17F
TAMPICO        SUNNY     73  63  68 MISG      30.01F
TOLUCA         PTSUNNY   64  25  22 E7        30.32F

SOUTHERN MEXICO

CITY           SKY/WX    TMP DP  RH WIND       PRES   REMARKS
ACAPULCO       PTSUNNY   84  72  65 SW5       29.87F
B. DE HUATULCO MOSUNNY  N/A N/A N/A SE12      29.90
OAXACA         PTSUNNY   79  41  25 S8        30.14F
P. ESCONDIDO   MOSUNNY   82  68  61 W10       29.96F
VERACRUZ       MOSUNNY   79  63  57 E10       30.01F
ZIHUATANEJO    MOSUNNY   86  73  66 SW8       29.89F HX  93

YUCATAN PENINSULA

CITY           SKY/WX    TMP DP  RH WIND       PRES   REMARKS
CAMPECHE       MOSUNNY   81  64  57 E14       29.99F
CANCUN         CLOUDY    79  64  61 E7        30.07F
CHETUMAL       PTSUNNY   81  66  61 NE6       30.01
CD. DEL CARMEN CLOUDY    77  63  61 E6        30.02
COZUMEL        PTSUNNY   77  68  73 NE14      30.04F
MERIDA         PTSUNNY   86  57  37 E12       30.04F
MINATITLAN     CLOUDY   N/A N/A N/A N21       29.99
TAPACHULA      MOSUNNY   90  70  51 W9        29.84F HX  95
TUX. GUTIERREZ PTSUNNY   82  59  44 N9        29.97F
VILLAHERMOSA   PTSUNNY   77  63  61 E9        30.02F

CENTRAL AMERICA

CITY           SKY/WX    TMP DP  RH WIND       PRES   REMARKS
BELIZE CITY    PTSUNNY   79  70  73 N9        29.99F
MANAGUA        PTCLDY    88  66  48 NE16      29.77F HX  90

CARIBBEAN

CITY           SKY/WX    TMP DP  RH WIND       PRES   REMARKS
ARUBA          MOSUNNY   86  75  70 E25       29.86  HX  95
CURACAO        MOSUNNY   84  72  65 E17       29.89F
KINGSTON       MOSUNNY   86  72  62 SE23      29.89F HX  92
NASSAU         PTSUNNY   77  64  65 NE8       30.17S
SAN JUAN       MOSUNNY   82  73  74 E18       30.02S
SANTO DOMINGO  LGT RAIN  75  73  94 E9        30.00R
ST. CROIX      MOSUNNY   79  72  78 E10       30.02
ST. KITTS      MOSUNNY   82  72  69 NE16      30.00S
ST. MAARTEN    MOSUNNY   82  68  61 E13       30.00S
ST. THOMAS     MOSUNNY   82  72  69 E13       30.02

$$





USA.gov is the U.S. government's official web portal to all federal, state and local government web resources and services.